User: anonymous   Login
Location: Unspecified
(0.0000°N, 0.0000°E)
Time: 10:24:30
(UTC+02:00)
Language:

Iridium 33 - Orbit

View from above orbital plane
View from above orbital plane
View from above satellite
View from above satellite

Ground track
Ground track

The orbit data is extracted from the following two-line orbital elements,

1 24946U 97051C   15184.55915957  .00000126  00000-0  38359-4 0  9993
2 24946 086.3876 225.7723 0009802 060.1490 093.3031 14.33392421931668
Epoch (UTC): 03 July 2015 13:25:11
Eccentricity: 0.0009802
inclination: 86.3876°
perigee height: 773 km
apogee height: 787 km
right ascension of ascending node: 225.7723°
argument of perigee: 60.1490°
revolutions per day: 14.33392421
mean anomaly at epoch: 93.3031°
orbit number at epoch: 93166

The dashed part of the orbit path shows where the satellite is in the earth's shadow,  

DLR